"Pseudo-MPEC" for P10Gxqn

Created 2018 Feb 19 17:18:08 UT using Find_Orb

Astrometry:
     P10Gxqn  C2018 02 12h]Astrometry'07_qtgcy[d0Db[*0!ce#'wx+-aWOx8_5Q0/MbS7F51
     P10Gxqn  C2018 02 12swS.[cdEO@V=!JMy:e8P94OggOt7^Uy3v!C9V9rfq3Qd=mf0[fH]F51
     P10Gxqn  C2018 02 12;gW-Aob@\^AZRxsJJredacted;:A]E+T9LeNhQw%G6T_,p%B/;RPF51
     P10Gxqn  C2018 02 12e#j`:5Fo(r4W:?.?fL/te;kj8TD:owjZT4tHJ@=,l+c,Kq%kw5fbF51
     P10Gxqn  C2018 02 17.42969 11 21 10.68 +13 24 50.7          20.4 GUNEOCPG96
     P10Gxqn  C2018 02 17.43542 11 21 13.53 +13 24 57.6          21.0 GUNEOCPG96
     P10Gxqn  C2018 02 17.44116 11 21 16.45 +13 25 04.3          21.6 GUNEOCPG96
     P10Gxqn  C2018 02 17.44690 11 21 19.31 +13 25 10.8          21.2 GUNEOCPG96
     P10Gxqn  C2018 02 17.48018 11 21 36.35 +13 25 49.7          20.4 GUNEOCPG96
     P10Gxqn  C2018 02 17.48093 11 21 36.73 +13 25 51.0          20.7 GUNEOCPG96
     P10Gxqn  C2018 02 17.48168 11 21 37.13 +13 25 51.3          21.4 GUNEOCPG96
     P10Gxqn  C2018 02 17.48244 11 21 37.54 +13 25 52.7          21.1 GUNEOCPG96
     P10Gxqn KC2018 02 18*1,BeQ]4('n6B^@cVLUajbf;AX9VxUa/b]NmtbO0erRI8oYKu.gaH21
     P10Gxqn KC2018 02 18Jbs=?qrZZZ=b'8$VnhAfAEXjXv;S+\o/seeEhL:DRNYok:aoq/^lH21
     P10Gxqn KC2018 02 18uYk-IJ*?#iULxToJL/H$7[N(v5RmEj9tI+(LU2k2U!_SU.W(=Y,.H21
     P10Gxqn KC2018 02 18;4kkJw8IgQCj6%kkbXFcqyr%0Tvj;^_OOPyLh9sF]0%Uqb3NEOCPH21

Station data:
(F51) Pan-STARRS 1, Haleakala  (N20.707234 W156.255910)  US/Hawaii.
   Observers N. Primak, A. Schultz, S. Watters, J. Thiel, T. Goggia. Measurer
   PS1 Science Consortium. 1.8-m Ritchey-Chrétien + CCD.
(G96) Mt. Lemmon Survey  (N32.442751 W110.788720)  US/Arizona.  Observers E.
   J. Christensen, A. R. Gibbs, A. D. Grauer, R. E. Hill, J. A. Johnson, R.
   A. Kowalski, S. M. Larson, F. C. Shelly. 1.5-m reflector + CCD.
(H21) Astronomical Research Observatory, Westfield  (N39.483054 W87.968270)
   US/Illinois. 0.76-m f/3.0 astrograph + CCD.

Orbital elements:  P10Gxqn
   Perihelion 2018 Apr 12.592695 +/- 0.00407 TT = 14:13:28 (JD 2458221.092695)
Epoch 2018 Feb 18.0 TT = JDT 2458167.5   Earth MOID: 0.0079   AutoNEOCP
M 315.71694 +/- 0.045               (J2000 ecliptic)
n   0.82628892 +/- 0.000887         Peri.   72.09471 +/- 0.029
a   1.12472951 +/- 0.000805         Node   136.13136 +/- 0.0036
e   0.1569327 +/- 0.00082           Incl.    1.09028 +/- 0.0052
P   1.19/435.67d           H 27.9   G  0.15   U  8.0  
q 0.94822258 +/- 0.000244    Q 1.30123645 +/- 0.00185
From 16 observations 2018 Feb. 12-18; mean residual 0".23
Residuals in arcseconds: 
180212 F51  .53+  .06+    180217 G96  .38+  .18-    180218 H21  .29-  .35-    
180212 F51  .26-  .10-    180217 G96  .07-  .52-    180218 H21  .02-  .00     
180212 F51  .23-  .01+    180217 G96  .02-  .02-    180218 H21  .06+  .02-    
180212 F51  .04-  .02+    180217 G96  .17-  .43+    180218 H21  .24+  .29+    
180217 G96  .04-  .08+    180217 G96  .03-  .11-    
180217 G96  .22-  .02+    180217 G96  .18+  .44+    

Ephemerides (geocentric):
Date (UTC) HH   RA              Dec         delta   r     elong  mag " sig PA
---- -- -- --  ------------   ------------  ------ ------ -----  --- ---- ---
2018 02 19 17  11 48 54.508   +14 23 01.37  .02400 1.0106 156.0 21.0  1.0  41
2018 02 19 18  11 49 31.110   +14 24 07.96  .02391 1.0105 155.9 21.0  1.0  41
2018 02 19 19  11 50 07.978   +14 25 14.68  .02383 1.0105 155.8 21.0  1.0  41
2018 02 19 20  11 50 45.115   +14 26 21.50  .02374 1.0104 155.6 20.9  1.0  40
2018 02 19 21  11 51 22.524   +14 27 28.43  .02365 1.0103 155.5 20.9  1.0  40
2018 02 19 22  11 52 00.205   +14 28 35.46  .02357 1.0102 155.4 20.9  1.0  40
2018 02 19 23  11 52 38.163   +14 29 42.59  .02348 1.0101 155.3 20.9  1.0  40
2018 02 20 00  11 53 16.400   +14 30 49.81  .02339 1.0100 155.2 20.9  1.0  39
2018 02 20 01  11 53 54.917   +14 31 57.12  .02331 1.0099 155.1 20.9  1.0  39
2018 02 20 02  11 54 33.719   +14 33 04.51  .02322 1.0098 154.9 20.9  1.0  39
2018 02 20 03  11 55 12.806   +14 34 11.98  .02314 1.0097 154.8 20.9  1.0  38
2018 02 20 04  11 55 52.182   +14 35 19.52  .02305 1.0097 154.7 20.9  1.0  38
2018 02 20 05  11 56 31.849   +14 36 27.12  .02297 1.0096 154.6 20.9  1.0  38
2018 02 20 06  11 57 11.811   +14 37 34.79  .02288 1.0095 154.4 20.9  1.0  38
2018 02 20 07  11 57 52.069   +14 38 42.51  .02280 1.0094 154.3 20.9  1.0  37
2018 02 20 08  11 58 32.626   +14 39 50.28  .02271 1.0093 154.2 20.9  1.0  37
2018 02 20 09  11 59 13.485   +14 40 58.09  .02263 1.0092 154.0 20.9  1.0  37
2018 02 20 10  11 59 54.649   +14 42 05.94  .02254 1.0091 153.9 20.9  1.0  36
2018 02 20 11  12 00 36.120   +14 43 13.82  .02246 1.0090 153.8 20.9  1.0  36
2018 02 20 12  12 01 17.901   +14 44 21.72  .02238 1.0089 153.7 20.9  1.0  36
2018 02 20 13  12 01 59.995   +14 45 29.63  .02229 1.0088 153.5 20.9  1.0  35
2018 02 20 14  12 02 42.404   +14 46 37.56  .02221 1.0088 153.4 20.9  1.0  35
2018 02 20 15  12 03 25.132   +14 47 45.49  .02213 1.0087 153.2 20.9  1.0  34
2018 02 20 16  12 04 08.181   +14 48 53.41  .02204 1.0086 153.1 20.9  1.0  34
2018 02 20 17  12 04 51.554   +14 50 01.31  .02196 1.0085 153.0 20.9  1.0  34
2018 02 20 18  12 05 35.253   +14 51 09.20  .02188 1.0084 152.8 20.8  1.0  33
2018 02 20 19  12 06 19.283   +14 52 17.05  .02180 1.0083 152.7 20.8  1.0  33
2018 02 20 20  12 07 03.644   +14 53 24.86  .02171 1.0082 152.5 20.8  1.0  32
2018 02 20 21  12 07 48.341   +14 54 32.63  .02163 1.0081 152.4 20.8  1.0  32
2018 02 20 22  12 08 33.377   +14 55 40.34  .02155 1.0080 152.2 20.8  1.0  31
2018 02 20 23  12 09 18.754   +14 56 47.99  .02147 1.0080 152.1 20.8  1.0  31
2018 02 21 00  12 10 04.475   +14 57 55.56  .02139 1.0079 151.9 20.8  1.0  31
2018 02 21 01  12 10 50.543   +14 59 03.05  .02131 1.0078 151.8 20.8  1.0  30
2018 02 21 02  12 11 36.961   +15 00 10.45  .02123 1.0077 151.6 20.8  1.0  30
2018 02 21 03  12 12 23.732   +15 01 17.74  .02115 1.0076 151.5 20.8  1.0  29
2018 02 21 04  12 13 10.859   +15 02 24.91  .02107 1.0075 151.3 20.8  1.0  28
2018 02 21 05  12 13 58.345   +15 03 31.97  .02099 1.0074 151.2 20.8  .99  28
2018 02 21 06  12 14 46.193   +15 04 38.88  .02091 1.0073 151.0 20.8  .98  27
2018 02 21 07  12 15 34.407   +15 05 45.65  .02083 1.0072 150.9 20.8  .98  27
2018 02 21 08  12 16 22.988   +15 06 52.26  .02075 1.0072 150.7 20.8  .98  26
2018 02 21 09  12 17 11.941   +15 07 58.70  .02067 1.0071 150.5 20.8  .97  26
2018 02 21 10  12 18 01.268   +15 09 04.96  .02059 1.0070 150.4 20.8  .97  25
2018 02 21 11  12 18 50.972   +15 10 11.03  .02051 1.0069 150.2 20.8  .97  24
2018 02 21 12  12 19 41.057   +15 11 16.89  .02044 1.0068 150.0 20.8  .96  24
2018 02 21 13  12 20 31.525   +15 12 22.53  .02036 1.0067 149.9 20.8  .96  23
2018 02 21 14  12 21 22.379   +15 13 27.93  .02028 1.0066 149.7 20.8  .96  23
2018 02 21 15  12 22 13.624   +15 14 33.09  .02020 1.0065 149.5 20.8  .95  22
2018 02 21 16  12 23 05.261   +15 15 37.99  .02013 1.0064 149.4 20.8  .95  21